Location: ČR
(50.0000°N, 15.0000°E)
Time: 13:53:22
(UTC+00:00)

Explorer 7 - Pass Details

Date: 26 October 2021
Orbit: 483 x 675 km, 50.3° (Epoch: 27 November)

Event Time Altitude Azimuth Distance (km) Brightness Sun altitude
Rises 20:59:23 0° 256° (WSW) 2,667 - -47.0°
Reaches altitude 10° 21:01:32 10° 255° (WSW) 1,807 - -47.3°
Maximum altitude 21:05:39 84° 168° (SSE) 577 - -47.7°
Drops below altitude 10° 21:10:05 10° 81° (E) 1,933 - -48.1°
Sets 21:12:27 0° 81° (E) 2,871 - -48.3°
